www.pogodaiklimat.ru

Погода и климат >> Архив погоды >> Россия >> город Санкт-Петербург >> Санкт-Петербург


АРХИВ ПОГОДЫ в Санкт-Петербурге

Время (UTC), дата Ветер
(напр.,м/с)
 
Видим.   Явления Облачность Т
(С)
Тd
(С)
f
(%)
Тe
(С)
Тes
(С)
Комфортность P
(гПа)
Po
(гПа)
Тmin
(С)
Tmax
(С)
R
(мм)
R24
(мм)
S
(см)
03 19.09 С 2 10 км 10/10 270 м
[St]
+10.8 +10.0 95 +9 +9 по сезону 994.5 993.8 +10.8 7
06 19.09 С 3 10 км слабый дождь 10/10 360 м
[Sc diur, vesp Ac As]
+9.8 +7.9 88 +7 +7 по сезону 997.6 996.9 +9.8
09 19.09 СЗ 3 4000 м слабая морось 10/10 270 м
[Sc diur, vesp]
+9.4 +7.6 89 +7 +7 прохладно 1002.0 1001.3
12 19.09 СЗ 2 10 км 10/10 480 м
[Sc]
+10.3 +7.0 80 +9 +9 прохладно 1006.3 1005.6
15 19.09 З 2 10 км 9/8 800 м
[Sc Ac trans]
+10.6 +6.4 75 +9 +9 по сезону 1009.3 1008.6 1
18 19.09 ЮЗ 2 10 км 9/8 600 м
[Sc Ac trans]
+10.5 +7.5 82 +9 +9 по сезону 1011.4 1010.7 +11.6
21 19.09 ЮЗ 2 10 км 1/0
[Ac trans]
+9.5 +7.4 87 +8 +8 по сезону 1013.1 1012.3
00 20.09 Ю 1 10 км 1/0
[Ac trans]
+8.4 +7.0 91 +8 +8 по сезону 1014.7 1014.0
03 20.09 штиль 0 10 км 1/0
[Ac trans]
+7.1 +6.3 95 +6 +6 по сезону 1016.1 1015.3 +7.0 0.0
06 20.09 Ю 1 10 км 9/0
[Ac As]
+10.1 +7.9 86 +10 +10 по сезону 1018.0 1017.2 +6.9
09 20.09 СЗ 1 10 км 6/6 360 м
[Sc]
+12.3 +7.5 72 +12 +15 по сезону 1019.6 1018.9
12 20.09 Ю 1 10 км 8/6 360 м
[Sc]
+14.4 +8.0 65 +15 +16 тепло 1020.9 1020.2
15 20.09 штиль 0 10 км 9/9 420 м
[Sc]
+14.2 +9.5 73 +14 +14 тепло 1021.9 1021.1
18 20.09 В 1 10 км 6/0
[Ac As]
+12.6 +9.6 82 +13 +13 тепло 1023.5 1022.8 +15.4
21 20.09 штиль 0 10 км 6/0
[Ac As]
+11.0 +9.2 89 +10 +10 по сезону 1025.3 1024.5
00 21.09 штиль 0 10 км ясно +9.5 +8.6 94 +9 +9 по сезону 1026.9 1026.1
03 21.09 штиль 0 4000 м дымка 8/0
[Ac As]
+8.3 +7.5 95 +7 +7 по сезону 1028.1 1027.3 +8.3
06 21.09 В 1 10 км 4/0
[Ac As]
+10.7 +9.4 92 +10 +11 по сезону 1029.3 1028.6 +8.2
09 21.09 В 1 10 км 3/0
[Ac As Ci fib]
+15.6 +9.4 67 +16 +21 тепло 1029.5 1028.8
12 21.09 В 1 10 км 5/5 300 м
[Cu hum Ci fib]
+17.5 +8.7 56 +19 +21 тепло 1029.8 1029.1
15 21.09 В 1 10 км 4/0
[Ac As]
+14.4 +9.5 72 +15 +15 тепло 1029.9 1029.2
18 21.09 СВ 1 10 км 5/0
[As trans]
+11.9 +9.1 83 +12 +12 тепло 1030.5 1029.7 +17.8
21 21.09 В 1 10 км 5/0
[Ac trans]
+10.8 +7.6 81 +11 +11 по сезону 1031.1 1030.4
00 22.09 В 1 10 км слабый дождь 10/10 300 м
[Frnb Ns]
+9.5 +6.5 82 +9 +9 по сезону 1031.3 1030.5
03 22.09 В 2 10 км {дождь} 5/0
[As trans]
+9.0 +6.8 86 +7 +7 по сезону 1030.6 1029.8 +9.0 0.5
06 22.09 В 2 10 км 10/6 300 м
[St Ac As]
+10.1 +7.2 82 +9 +9 по сезону 1030.1 1029.4 +9.0 0.6
09 22.09 В 2 10 км 9/0
[Ac As]
+13.9 +7.4 65 +13 +15 тепло 1029.6 1028.9
12 22.09 В 1 10 км 10/0
[Ac As]
+14.2 +8.5 69 +15 +16 тепло 1030.2 1029.5
15 22.09 ЮВ 3 10 км 9/0
[Ac As]
+14.1 +7.4 64 +13 +13 тепло 1029.4 1028.7 0.6
18 22.09 ЮВ 2 10 км ясно +12.5 +7.3 71 +12 +12 тепло 1030.0 1029.2 +15.2
21 22.09 ЮВ 2 10 км ясно +11.5 +7.0 74 +10 +10 по сезону 1030.7 1030.0
00 23.09 штиль 0 10 км ясно +9.3 +6.7 84 +9 +9 по сезону 1032.3 1031.5
03 23.09 штиль 0 10 км ясно +8.1 +6.3 88 +7 +7 по сезону 1032.6 1031.8 +8.1
06 23.09 ЮВ 1 10 км 3/0
[Ci fib]
+9.5 +5.9 78 +9 +10 по сезону 1033.1 1032.3 +8.1
09 23.09 В 1 10 км ясно +14.5 +7.1 61 +15 +20 тепло 1033.4 1032.6
12 23.09 В 1 10 км ясно +18.6 +6.5 45 +20 +24 тепло 1033.3 1032.6
15 23.09 В 1 10 км ясно +16.5 +7.9 57 +17 +18 тепло 1033.4 1032.7
18 23.09 штиль 0 10 км ясно +12.8 +8.1 73 +12 +12 тепло 1034.2 1033.5 +18.7
21 23.09 В 1 10 км ясно +10.8 +7.9 82 +11 +11 тепло 1035.2 1034.5
00 24.09 штиль 0 10 км ясно +9.1 +7.2 88 +8 +8 по сезону 1036.2 1035.4
03 24.09 СВ 1 10 км ясно +7.9 +6.6 91 +7 +7 по сезону 1036.5 1035.7 +7.9
06 24.09 В 1 10 км ясно +9.8 +7.2 84 +9 +11 по сезону 1037.1 1036.3 +7.5
09 24.09 В 1 10 км ясно +15.2 +7.7 61 +16 +21 тепло 1038.1 1037.3
12 24.09 СВ 1 10 км ясно +18.1 +8.5 53 +19 +23 тепло 1038.2 1037.5
15 24.09 В 1 10 км ясно +17.1 +8.9 58 +18 +18 тепло 1038.0 1037.2
18 24.09 штиль 0 10 км ясно +12.4 +9.1 80 +12 +12 тепло 1038.8 1038.0 +18.7
21 24.09 штиль 0 10 км ясно +10.3 +9.1 92 +10 +10 по сезону 1040.0 1039.3
00 25.09 штиль 0 10 км ясно +8.8 +8.0 95 +8 +8 по сезону 1040.7 1040.0
03 25.09 штиль 0 4000 м дымка ясно +7.8 +7.1 95 +7 +7 по сезону 1040.9 1040.1 +7.7
06 25.09 штиль 0 10 км ясно +10.2 +9.6 96 +9 +11 по сезону 1041.6 1040.8 +7.7
09 25.09 В 1 10 км ясно +17.3 +9.8 61 +18 +23 тепло 1041.4 1040.7
12 25.09 СВ 1 10 км ясно +19.0 +10.2 57 +21 +25 комфорт 1041.1 1040.4
15 25.09 СВ 1 10 км ясно +16.8 +9.4 62 +18 +18 тепло 1040.9 1040.1
18 25.09 СВ 1 10 км ясно +11.8 +9.5 86 +12 +12 тепло 1041.1 1040.3 +19.8
21 25.09 В 1 10 км 10/10 300 м
[St]
+11.4 +9.7 89 +11 +11 тепло 1041.7 1040.9
00 26.09 СВ 1 4000 м дымка 10/10 300 м
[St]
+10.6 +9.6 94 +10 +10 по сезону 1041.9 1041.1

 

Местоположение метеостанции Санкт-Петербург (город Санкт-Петербург, Россия): широта 59.97 долгота 30.30 высота над уровнем моря 6 м.

В архиве по умолчанию представлена погода в Санкт-Петербурге за последнюю неделю. Архивные данные за месяц целиком и за предыдущие месяцы, начиная с января 2011 года, Вы можете получить, выбрав интересующий диапазон дат из раскрывающегося списка и нажав кнопку "Ввод!".

Внимание! Время в таблицах - всемирное. Для получения местного времени необходимо прибавить поправку, которая в Санкт-Петербурге равна 3 ч.

Смотрите также архив погоды в соседних городах и на ближайших метеорологических станциях:

Погода в Воейково (город Санкт-Петербург, Россия) (22 км)
Погода в Ломоносове (город Санкт-Петербург, Россия) (29 км)
Погода в Кронштадте (город Санкт-Петербург, Россия) (30 км)
Погода в Шлиссельбурге (Ленинградская область, Россия) (39 км)
Погода в Рощино (Ленинградская область, Россия) (48 км)
Погода в Шепелево (Ленинградская область, Россия) (58 км)
Погода в Сосново (Ленинградская область, Россия) (65 км)
Погода в Белогорке (Ленинградская область, Россия) (70 км)
Погода в Волосово (Ленинградская область, Россия) (75 км)
Погода в Озерках (Ленинградская область, Россия) (77 км)

Пояснения к столбцам:

Ветер - указаны скорость ветра в м/с - средняя за 10 мин, порывы в срок и между сроками (в фигурных скобках) и направление, откуда дует ветер: С - северный, СВ - северо-восточный, В - восточный, ЮВ - юго-восточный, Ю - южный, ЮЗ - юго-западный, З - западный, СЗ - северо-западный.
Видимость - горизонтальная дальность видимости в метрах или километрах. При видимости от 1 до 10 км при отсутствии осадков обычно наблюдается дымка, при ухудшении видимости до 1 км и менее - туман. В сухую погоду видимость может ухудшаться дымом, пылью или мглою.
Явления - указаны атмосферные явления, наблюдавшиеся в срок или в последний час перед сроком; фигурными скобками обозначены явления, наблюдавшиеся между сроками (за 1-3 часа до срока); квадратными скобками обозначены град или гололедные отложения с указанием их диаметра в мм.
Облачность - указаны через наклонную черту общая и нижняя облачность в баллах и высота нижней границы облаков в метрах; квадратными скобками обозначены формы облаков: Ci - перистые, Cs - перисто-слоистые, Cc - перисто-кучевые, Ac - высококучевые, As - высокослоистые, Sc - слоисто-кучевые, Ns - слоисто-дождевые, Cu - кучевые, Cb - кучево-дождевые. Подробнее классификацию облаков см. в Атласе облаков (PDF).
T - Температура воздуха - температура, измеренная на высоте 2 м над землей.
Td - Температура точки росы - температура, при понижении до которой содержащийся в воздухе водяной пар достигнет насыщения.
f - Относительная влажность воздуха - влажноcть воздуха, измеренная на высоте 2 м над землей.
Te - Эффективная температура - температура, которую ощущает одетый по сезону человек в тени. Характеристика душности погоды. При расчете учитывается влияние влажности воздуха и скорости ветра на теплоощущения человека.
Tes - Эффективная температура на солнце - температура, которую ощущает человек, с поправкой на солнечный нагрев. Характеристика знойности погоды. Зависит от высоты солнца над горизонтом, облачности и скорости ветра. Ночью, в пасмурную погоду, а также при ветре 12 м/с и более поправка равна нулю.
P - Атмосферное давление - приведенное к уровню моря атмосферное давление.
Po - Атмосферное давление - измеренное на уровне метеостанции атмосферное давление.
Tmin - Минимальная температура - минимум температуры воздуха на высоте 2 м над землей.
Tmax - Максимальная температура - максимум температуры воздуха на высоте 2 м над землей.
R - Количество осадков - Количество выпавших осадков за период времени, мм. При наведении курсора мыши на число - период времени, за который выпало указанное количество осадков.
R24 - Количество осадков - Количество выпавших осадков за 24 часа, мм.
S - Снежный покров - Высота снежного покрова, см. При наведении курсора мыши на число - состояние снежного покрова и степень покрытия местности в баллах.